Lake Tuscaloosa Weather Center

Moon Phase Calendar



Lake Tuscaloosa Water Level
Online Cameras

 


      

Current Conditions in Mariners Cove
6/25/2024 10:18:27 AM

89°F
Feels Like 93
Clear
Humidity
52%
Pressure
29.97"
Wind
5.8 mph (N)
Dew Point
69°F
UV Index
6/10 (High)
Visibility
6 mi

Hourly Forecast

Date & Time Tue, Jun 25
10:00 AM
Tue, Jun 25
11:00 AM
Tue, Jun 25
12:00 PM
Tue, Jun 25
1:00 PM
Tue, Jun 25
2:00 PM
Tue, Jun 25
3:00 PM
Tue, Jun 25
4:00 PM
Tue, Jun 25
5:00 PM
Tue, Jun 25
6:00 PM
Tue, Jun 25
7:00 PM
Tue, Jun 25
8:00 PM
Tue, Jun 25
9:00 PM
Tue, Jun 25
10:00 PM
Tue, Jun 25
11:00 PM
Wed, Jun 26
12:00 AM
Wed, Jun 26
1:00 AM
Wed, Jun 26
2:00 AM
Wed, Jun 26
3:00 AM
Wed, Jun 26
4:00 AM
Wed, Jun 26
5:00 AM
Wed, Jun 26
6:00 AM
Wed, Jun 26
7:00 AM
Wed, Jun 26
8:00 AM
Wed, Jun 26
9:00 AM
Wed, Jun 26
10:00 AM
Wed, Jun 26
11:00 AM
Wed, Jun 26
12:00 PM
Wed, Jun 26
1:00 PM
Wed, Jun 26
2:00 PM
Wed, Jun 26
3:00 PM
Wed, Jun 26
4:00 PM
Wed, Jun 26
5:00 PM
Wed, Jun 26
6:00 PM
Wed, Jun 26
7:00 PM
Wed, Jun 26
8:00 PM
Wed, Jun 26
9:00 PM
Wed, Jun 26
10:00 PM
Wed, Jun 26
11:00 PM
Thu, Jun 27
12:00 AM
Thu, Jun 27
1:00 AM
Thu, Jun 27
2:00 AM
Thu, Jun 27
3:00 AM
Thu, Jun 27
4:00 AM
Thu, Jun 27
5:00 AM
Thu, Jun 27
6:00 AM
Thu, Jun 27
7:00 AM
Thu, Jun 27
8:00 AM
Thu, Jun 27
9:00 AM
Condition
Clear

Clear

Clear

Clear

Clouds

Clouds

Clouds

Clouds

Clouds

Clouds

Clouds

Clouds

Clouds

Clouds

Clouds

Clouds

Clouds

Clouds

Clouds

Clouds

Clouds

Clouds

Clouds

Clouds

Clouds

Clouds

Clouds

Clouds

Clouds

Rain

Rain

Rain

Rain

Clouds

Clouds

Clouds

Clouds

Rain

Clouds

Clouds

Clouds

Clouds

Clouds

Rain

Rain

Clouds

Clouds

Clouds
Temperature 89°F90°F92°F95°F98°F100°F100°F99°F97°F91°F86°F83°F81°F80°F80°F78°F77°F76°F75°F75°F74°F77°F82°F86°F90°F94°F97°F99°F101°F91°F76°F72°F73°F75°F74°F72°F71°F71°F70°F70°F70°F70°F70°F70°F70°F72°F75°F80°F
Feels Like 93°F94°F95°F98°F99°F100°F99°F99°F98°F93°F87°F84°F82°F81°F81°F78°F77°F76°F75°F75°F74°F77°F83°F86°F91°F96°F100°F102°F103°F97°F77°F74°F75°F76°F75°F73°F73°F72°F72°F71°F71°F71°F71°F71°F71°F73°F76°F80°F
Cloudiness 0%0%0%1%54%81%82%79%78%79%70%36%53%64%71%76%100%100%100%100%99%99%100%100%100%100%99%98%30%61%73%81%84%85%100%84%58%70%57%62%40%60%46%41%38%34%26%25%
Visibility 6 mi6 mi6 mi6 mi6 mi6 mi6 mi6 mi6 mi6 mi6 mi6 mi6 mi6 mi6 mi6 mi6 mi6 mi6 mi6 mi6 mi6 mi6 mi6 mi6 mi6 mi6 mi6 mi6 mi6 mi2 mi6 mi6 mi6 mi6 mi6 mi6 mi6 mi6 mi6 mi6 mi6 mi6 mi6 mi6 mi6 mi6 mi6 mi
Precipitation 0%0%0%0%0%0%0%0%0%0%0%0%0%0%0%0%0%0%0%0%0%0%0%0%0%0%0%0%7%75%100%100%100%80%0%0%0%36%40%31%0%0%0%33%31%30%0%0%
Humidity 52%48%42%37%30%24%24%25%30%41%43%47%52%52%50%52%55%57%58%58%59%59%52%44%40%36%33%31%30%49%87%96%92%88%86%88%91%94%97%97%97%98%98%99%98%94%86%73%
Dew Point 69°F68°F66°F65°F61°F57°F57°F58°F61°F64°F61°F61°F61°F61°F60°F59°F59°F59°F59°F59°F59°F62°F62°F62°F62°F63°F64°F64°F64°F68°F71°F71°F71°F71°F69°F68°F68°F68°F69°F69°F69°F69°F69°F69°F69°F70°F70°F70°F
Pressure 29.97"29.97"29.97"29.94"29.91"29.91"29.88"29.88"29.88"29.88"29.88"29.88"29.91"29.91"29.91"29.88"29.88"29.88"29.88"29.88"29.88"29.88"29.91"29.91"29.91"29.91"29.88"29.85"29.83"29.8"29.85"29.91"29.83"29.8"29.8"29.83"29.83"29.85"29.85"29.83"29.8"29.8"29.83"29.83"29.85"29.85"29.85"29.85"
Wind Speed 1.3 mph0.4 mph1.5 mph3.2 mph3.8 mph4.3 mph5.1 mph5.7 mph5 mph3.5 mph3.4 mph5.5 mph4.5 mph5 mph3.4 mph0.6 mph1.5 mph2.2 mph1.1 mph2.9 mph2.5 mph1 mph2.1 mph3.1 mph3.4 mph3.6 mph4.6 mph4.7 mph5.7 mph10.2 mph11.3 mph6.3 mph1.9 mph1.9 mph2.9 mph3.4 mph4.4 mph3.3 mph3.4 mph1.8 mph2.9 mph3.1 mph2.8 mph3 mph1.8 mph2.1 mph3 mph3 mph
Wind
Direction
148°
SSE
216°
SW
342°
NNW
351°
N
359°
N

N
20°
NNE
33°
NNE
46°
NE
71°
ENE
63°
ENE
51°
NE
67°
ENE
83°
E
81°
E
320°
NW
307°
NW
115°
ESE
70°
ENE
77°
ENE
65°
ENE
34°
NE
255°
WSW
268°
W
293°
WNW
298°
WNW
307°
NW
302°
WNW
302°
WNW
318°
NW
341°
NNW
281°
W
171°
S

N
327°
NNW
273°
W
224°
SW
233°
SW
303°
WNW
337°
NNW
148°
SSE
214°
SW
268°
W
321°
NW
334°
NNW
110°
ESE
78°
ENE
116°
ESE

Daily Forecast

Date High Low Precip. Humidity
Today
Jun 25

Clear
100 °F
71 °F
0%
42%
Wednesday
Jun 26

Rain
101 °F
71 °F
100%
33%
Thursday
Jun 27

Rain
96 °F
70 °F
40%
49%
Friday
Jun 28

Rain
98 °F
74 °F
20%
34%
Saturday
Jun 29

Rain
95 °F
76 °F
54%
44%
Sunday
Jun 30

Rain
96 °F
80 °F
25%
41%
Monday
Jul 1

Rain
98 °F
76 °F
20%
43%
Tuesday
Jul 2

Rain
95 °F
75 °F
100%
70%
Wednesday
Jul 3

Rain
97 °F
77 °F
86%
43%
Thursday
Jul 4

Rain
99 °F
77 °F
100%
38%
Friday
Jul 5

Rain
93 °F
72 °F
100%
40%
Saturday
Jul 6

Clear
94 °F
67 °F
0%
31%
Sunday
Jul 7

Clear
102 °F
71 °F
0%
27%
Monday
Jul 8

Clear
105 °F
76 °F
0%
23%
Tuesday
Jul 9

Clear
107 °F
78 °F
0%
23%
Wednesday
Jul 10

Clouds
109 °F
79 °F
0%
21%

Temperature 8-14 Day Outlook



Precipitation 8-14 Day Outlook




Quick Links
Lake Tuscaloosa News
Lake Tuscaloosa Photos
Lake Tuscaloosa Videos




About Us
Contact Us
Site Map
Search Site
Advertise With Us
   
www.LakeTuscaloosa.info
THE LAKE TUSCALOOSA WEBSITE

Copyright 2024, Lakes Online
Privacy    |    Legal